Voltar ao catálogo

MOZ.5/SAFIR/RUBIN 5/SL-8

AtivoRádio AmadorSSO
NORAD 28898·PAYLOAD·🇩🇪 Germany

Lançado Oct 27, 2005 de Plesetsk Cosmodrome

Loading…

Próximas Passagens (próximas 24 horas)

TLE

AtualizadoSource: Space-Track

Época: Sep 14, 2026, 08:14 UTC

1 28898U 05043G   26257.34349355  .00000399  00000-0  84637-4 0  9998
2 28898  98.3673  43.1274 0019464  63.7466 296.5733 14.64477961736303

Acompanhe MOZ.5/SAFIR/RUBIN 5/SL-8 em tempo real com AllMySat

Download on the App Store